Location: Newark
(48.6461°N, 4.3644°W)
Time: 18:21:07
(UTC+00:00)

A-11 Canister half - Pass Details

Date: 04 February 2020
Orbit: 1517 x 1683 km, 47.2° (Epoch: 17 February)

Event Time Altitude Azimuth Distance (km) Brightness Sun altitude
Rises 20:31:47 0° 217° (SW) 4,821 11.9 -31.8°
Reaches altitude 10° 20:35:08 10° 210° (SSW) 3,814 11.2 -32.4°
Enters shadow 20:41:36 37° 176° (S) 2,272 9.6 -33.4°
